SHIJIAN-25 (SJ-25)

Last updated on Sun Apr 12 2026 00:02:57 GMT+0000 (Coordinated Universal Time)

1 62485U 25002A 26101.80812770 -.00000344 00000+0 00000+0 0 9997 2 62485 4.9559 61.5442 0050693 168.0287 28.7557 1.00274034 4690
UTC large
Height (km)
Speed (km/s)
/
Latitude / Longitude
Inclination (degrees)
Orbital Period (minutes)
Azimuth
Elevation
Range (km)
Doppler Factor

Next 0 passes for location: London (51.5072 / 0.1276)

Sorry there are no passes over London.
SHIJIAN-25 (SJ-25)